Date,TemperatureHighF,TemperatureAvgF,TemperatureLowF,DewpointHighF,DewpointAvgF,DewpointLowF,HumidityHigh,HumidityAvg,HumidityLow,PressureMaxIn,PressureMinIn,WindSpeedMaxMPH,WindSpeedAvgMPH,GustSpeedMaxMPH,PrecipitationSumIn
2013-10-1,83.9,70.0,58.9,66.1,62.6,55.9,97,80,51,29.94,29.85,16,8,26,0.00
2013-10-2,82.7,70.7,59.3,65.0,57.4,40.4,99,68,27,30.05,29.92,16,6,21,0.00
2013-10-3,80.0,71.0,66.5,71.9,68.1,63.5,99,91,73,29.92,29.78,12,5,16,0.24
2013-10-4,76.9,70.6,66.3,72.6,68.5,63.9,98,93,77,29.95,29.85,15,6,18,0.51
2013-10-5,76.8,70.4,59.3,73.5,67.3,52.4,98,90,74,29.88,29.73,14,6,20,0.11
2013-10-6,59.2,49.9,43.5,53.6,43.3,40.0,97,79,55,29.80,29.71,14,6,20,0.00
2013-10-7,71.2,55.5,41.1,51.2,46.7,40.6,99,76,42,30.07,29.78,13,6,18,0.01
2013-10-8,78.4,62.6,47.6,53.9,48.5,44.6,93,64,31,30.17,30.07,13,4,17,0.00
2013-10-9,74.9,61.2,49.4,51.8,47.4,42.9,91,64,32,30.20,30.09,10,5,14,0.00
2013-10-10,77.4,61.8,49.7,57.2,52.0,46.3,89,73,47,30.15,30.00,9,4,14,0.00
2013-10-11,79.0,66.4,56.5,61.7,56.4,53.0,91,72,46,30.02,29.87,14,8,22,0.00
2013-10-12,71.8,63.3,47.9,62.6,52.6,40.4,91,70,35,30.19,29.88,13,6,21,0.00
2013-10-13,64.9,52.5,39.2,46.1,38.6,33.4,95,63,32,30.40,30.19,9,3,15,0.00
2013-10-14,65.5,52.2,35.9,47.7,42.3,33.1,93,71,44,30.40,30.07,15,8,19,0.00
2013-10-15,68.8,57.6,46.1,63.7,51.1,42.4,98,79,64,30.07,29.75,17,10,20,0.20
2013-10-16,52.8,50.2,44.5,47.5,46.2,41.7,94,86,80,29.96,29.84,13,8,19,0.00
2013-10-17,58.8,49.9,44.0,48.0,44.0,38.1,98,82,49,29.94,29.83,11,5,16,0.17
2013-10-18,49.3,44.9,36.3,43.3,40.0,34.7,98,83,70,29.98,29.84,12,5,17,0.00
2013-10-19,54.2,44.3,33.4,40.9,37.9,31.9,95,79,50,29.95,29.79,16,6,22,0.00
2013-10-20,63.2,49.1,36.6,48.2,42.4,34.5,97,79,54,29.86,29.72,12,4,16,0.00
2013-10-21,54.6,43.1,31.0,46.5,32.2,24.6,84,66,43,30.00,29.81,17,8,24,0.00
2013-10-22,38.0,33.9,26.7,36.9,31.8,23.6,98,92,75,30.02,29.93,8,3,10,0.08
2013-10-23,44.0,37.3,31.8,35.0,32.0,29.9,98,82,63,30.07,29.97,10,5,15,0.01
2013-10-24,40.5,36.9,28.9,34.9,28.8,24.4,90,73,55,30.35,30.06,14,7,21,0.00
2013-10-25,52.9,38.4,23.3,35.0,27.8,21.3,94,69,39,30.44,30.06,16,7,24,0.00
2013-10-26,53.5,45.6,33.3,37.5,32.0,27.6,81,60,44,30.11,29.89,18,10,24,0.00
2013-10-27,56.3,41.3,28.4,35.6,30.7,25.6,92,69,39,30.10,29.97,13,5,20,0.00
2013-10-28,58.8,44.1,33.4,44.7,36.6,29.2,87,75,54,30.36,30.06,18,9,21,0.00
2013-10-29,58.2,46.6,35.6,47.0,39.6,33.9,96,78,52,30.35,30.12,14,10,16,0.00
2013-10-30,60.9,54.0,49.7,60.9,53.5,46.5,100,98,88,30.11,29.75,14,7,17,0.81
2013-10-31,64.1,57.2,44.3,63.4,56.6,42.0,100,98,91,29.74,29.26,16,10,25,0.71